Del Bajio, Mexico

4:26 AM CDT on April 25, 2017 (GMT -0500)
De Guanajuato International

Weather History for MMLO - September, 2013

Change the Weather History Date:

Saturday, September 28, 2013

  Actual Average Record
Temperature  
Mean Temperature 68 °F -  
Max Temperature 82 °F 79 °F 87 °F (2011)
Min Temperature 55 °F 55 °F 50 °F (2008)
Cooling Degree Days 4    
Growing Degree Days 18 (Base 50)    
Moisture  
Dew Point 56 °F    
Average Humidity 70    
Maximum Humidity 100    
Minimum Humidity 35    
Precipitation  
Precipitation 0.00 in - - ()
Sea Level Pressure  
Sea Level Pressure 30.10 in    
Wind  
Wind Speed 2 mph ()    
Max Wind Speed 7 mph    
Max Gust Speed -    
Visibility 9.0 miles    
Events      
Averages and records for this station are not official NWS values.
T = Trace of Precipitation, MM = Missing Value Source: Averaged Metar Reports

Daily Weather History Graph

Daily Weather History Graph

Search for Another Location

Airport or City:

Trip Planner

Search our weather history database for the weather conditions in past years. The results will help you decide how hot, cold, wet, or windy it might be!

Date:

Astronomy

Sep. 28, 2013 Rise Set
Actual Time 7:36 AM CDT 7:36 PM CDT
Civil Twilight 7:14 AM CDT 7:58 PM CDT
Nautical Twilight 6:48 AM CDT 8:24 PM CDT
Astronomical Twilight 6:22 AM CDT 8:49 PM CDT
Moon 2:03 AM CDT (9/28) 3:20 PM CDT (9/28)
Length of Visible Light 12h 44m
Length of Day
11h 59m
Waning Crescent, 36% of the Moon is Illuminated
Sep 28
Waning Crescent
Oct 4
New
Oct 11
First Quarter
Oct 18
Full
Oct 26
Last Quarter

Hourly Weather History & Observations

Time (CDT) Temp. Heat Index Dew Point Humidity Pressure Visibility Wind Dir Wind Speed Gust Speed Precip Events Conditions
12:43 AM 60.8 °F - 59.0 °F 94% 29.85 in 8.0 mi Calm Calm - N/A   Mostly Cloudy
2:44 AM 60.8 °F - 59.0 °F 94% 30.21 in 8.0 mi Calm Calm - N/A   Mostly Cloudy
3:43 AM 59.0 °F - 57.2 °F 94% 29.75 in 8.0 mi Calm Calm - N/A   Mostly Cloudy
4:46 AM 57.2 °F - 55.4 °F 94% 30.21 in 8.0 mi NE 3.5 mph - N/A   Scattered Clouds
5:43 AM 57.2 °F - 55.4 °F 94% 30.21 in 8.0 mi NE 3.5 mph - N/A   Clear
6:43 AM 55.4 °F - 55.4 °F 100% 29.81 in 8.0 mi Calm Calm - N/A   Clear
7:46 AM 55.4 °F - 53.6 °F 94% 30.24 in 8.0 mi Calm Calm - N/A   Scattered Clouds
8:53 AM 60.8 °F - 57.2 °F 88% 30.27 in 10.0 mi Calm Calm - N/A   Scattered Clouds
9:49 AM 66.2 °F - 59.0 °F 78% 29.94 in 10.0 mi Calm Calm - N/A   Partly Cloudy
10:43 AM 71.6 °F - 59.0 °F 64% 30.29 in 10.0 mi Calm Calm - N/A   Partly Cloudy
11:44 AM 73.4 °F - 57.2 °F 57% 30.29 in 10.0 mi Calm Calm - N/A   Scattered Clouds
1:06 PM 77.0 °F - 55.4 °F 47% 29.89 in 10.0 mi Calm Calm - N/A   Scattered Clouds
1:42 PM 78.8 °F - 55.4 °F 44% 30.27 in 10.0 mi SSW 6.9 mph - N/A   Scattered Clouds
2:44 PM 80.6 °F 80.3 °F 53.6 °F 39% 30.24 in 10.0 mi SSW 3.5 mph - N/A   Scattered Clouds
3:45 PM 82.4 °F 81.4 °F 53.6 °F 37% 29.79 in 10.0 mi South 5.8 mph - N/A   Scattered Clouds
4:43 PM 64.4 °F - 51.8 °F 64% 30.18 in 10.0 mi West 4.6 mph - N/A   Scattered Clouds
5:44 PM 82.4 °F - 51.8 °F 35% 30.18 in 10.0 mi Calm Calm - N/A   Scattered Clouds
6:47 PM 78.8 °F - 50.0 °F 36% 29.77 in 10.0 mi West 3.5 mph - N/A   Scattered Clouds
7:44 PM 73.4 °F - 55.4 °F 53% 30.18 in 10.0 mi WSW 4.6 mph - N/A   Scattered Clouds
8:46 PM 71.6 °F - 60.8 °F 69% 30.21 in 8.0 mi Calm Calm - N/A   Mostly Cloudy
9:44 PM 66.2 °F - 57.2 °F 73% 29.88 in 8.0 mi ENE 6.9 mph - N/A   Scattered Clouds
10:42 PM 64.4 °F - 57.2 °F 77% 30.27 in 8.0 mi ENE 6.9 mph - N/A   Mostly Cloudy
11:45 PM 64.4 °F - 57.2 °F 77% 30.27 in 8.0 mi North 4.6 mph - N/A   Mostly Cloudy